This demonstration page uses our WeatherBlox Daily Observations layout. Learn more.

Left ArrowRight Arrow

Hourly Observations for May 8, 2017

Temp ( °F °C ) Dew Point ( °F °C ) Humidity (%) Winds ( mph kmh ) Pressure ( in mb ) Visibility ( mi km ) Precip ( " mm )
12:54 am 00:54 Clear 71 21.7 55 12.8 57 57 SSE 14 22 29.83 1010 10 16.0934 0 0
1:54 am 01:54 Clear 71 21.7 55 12.8 57 57 S 15 24 29.83 1010 10 16.0934 0 0
2:54 am 02:54 Clear 68 20 55 12.8 63 63 S 13 20 29.83 1010 10 16.0934 0 0
3:54 am 03:54 Clear 68 20 54 12.2 61 61 S 15 24 29.83 1010 10 16.0934 0 0
4:54 am 04:54 Clear 69 20.6 53 11.7 57 57 S 16 26 29.81 1010 10 16.0934 0 0
5:54 am 05:54 Clear 67 19.4 53 11.7 61 61 S 16 26 29.8 1009 10 16.0934 0 0
6:54 am 06:54 Sunny 66 18.9 53 11.7 63 63 SSW 16 26 29.83 1010 10 16.0934 0 0
7:54 am 07:54 Sunny 67 19.4 53 11.7 61 61 SSW 10 17 29.86 1011 10 16.0934 0 0
8:54 am 08:54 Sunny 71 21.7 54 12.2 55 55 SSW 15 24 29.85 1011 10 16.0934 0 0
9:54 am 09:54 Sunny 74 23.3 54 12.2 50 50 SSW 15 24 29.86 1011 10 16.0934 0 0
10:54 am 10:54 Sunny 79 26.1 55 12.8 44 44 SW 12 19 29.86 1011 10 16.0934 0 0
11:54 am 11:54 Sunny 83 28.3 57 13.9 41 41 S 15 24 29.84 1011 10 16.0934 0 0
12:54 pm 12:54 Sunny 86 30 57 13.9 37 37 VRB 6 9 29.84 1011 10 16.0934 0 0
1:54 pm 13:54 Sunny 90 32.2 55 12.8 31 31 SSW 13 20 29.82 1010 10 16.0934 0 0
2:54 pm 14:54 Sunny 91 32.8 51 10.6 26 26 WSW 12 19 29.8 1009 10 16.0934 0 0
3:54 pm 15:54 Sunny 93 33.9 50 10 23 23 SW 17 28 29.79 1009 10 16.0934 0 0
4:54 pm 16:54 Sunny 92 33.3 52 11.1 26 26 SW 15 24 29.78 1009 10 16.0934 0 0
5:54 pm 17:54 Sunny 91 32.8 52 11.1 26 26 SSW 15 24 29.78 1008 10 16.0934 0 0
6:54 pm 18:54 Sunny 90 32.2 51 10.6 26 26 SSW 16 26 29.77 1008 10 16.0934 0 0
7:54 pm 19:54 Sunny 85 29.4 55 12.8 36 36 SSW 13 20 29.78 1008 10 16.0934 0 0
8:54 pm 20:54 Mostly Cloudy 80 26.7 57 13.9 45 45 N 12 19 29.81 1010 10 16.0934 0 0
9:54 pm 21:54 Clear 75 23.9 58 14.4 55 55 N 9 15 29.86 1011 10 16.0934 0 0
10:54 pm 22:54 Clear 68 20 57 13.9 68 68 N 8 13 29.89 1012 10 16.0934 0 0
11:54 pm 23:54 Clear 66 18.9 57 13.9 73 73 NNW 5 7 29.91 1013 10 16.0934 0 0

Powered by AerisWeather